Year,Month,Day,Hour,Minute,Value (Times are PST for windspeed in km/hr)
2018,12,30,00,00,2.20
2018,12,30,00,01,1.70
2018,12,30,00,02,2.10
2018,12,30,00,03,2.80
2018,12,30,00,04,3.80
2018,12,30,00,05,3.00
2018,12,30,00,06,2.90
2018,12,30,00,07,1.50
2018,12,30,00,08,1.20
2018,12,30,00,09,3.50
2018,12,30,00,10,3.90
2018,12,30,00,11,4.50
2018,12,30,00,12,3.80
2018,12,30,00,13,1.70
2018,12,30,00,14,4.00
2018,12,30,00,15,4.10
2018,12,30,00,16,2.70
2018,12,30,00,17,4.50
2018,12,30,00,18,3.80
2018,12,30,00,19,2.10
2018,12,30,00,20,2.90
2018,12,30,00,21,3.90
2018,12,30,00,22,4.30
2018,12,30,00,23,3.40
2018,12,30,00,24,1.70
2018,12,30,00,25,3.50
2018,12,30,00,26,4.00
2018,12,30,00,27,3.80
2018,12,30,00,28,4.10
2018,12,30,00,29,4.20
2018,12,30,00,30,3.50
2018,12,30,00,31,2.90
2018,12,30,00,32,3.40
2018,12,30,00,33,3.60
2018,12,30,00,34,4.80
2018,12,30,00,35,3.70
2018,12,30,00,36,2.80
2018,12,30,00,37,4.10
2018,12,30,00,38,4.30
2018,12,30,00,39,4.10
2018,12,30,00,40,2.20
2018,12,30,00,41,2.60
2018,12,30,00,42,2.70
2018,12,30,00,43,4.20
2018,12,30,00,44,2.90
2018,12,30,00,45,0.00
2018,12,30,00,46,0.00
2018,12,30,00,47,3.50
2018,12,30,00,48,5.00
2018,12,30,00,49,3.00
2018,12,30,00,50,1.90
2018,12,30,00,51,1.70
2018,12,30,00,52,2.40
2018,12,30,00,53,2.40
2018,12,30,00,54,5.00
2018,12,30,00,55,3.80
2018,12,30,00,56,4.90
2018,12,30,00,57,3.20
2018,12,30,00,58,2.90
2018,12,30,00,59,5.50
2018,12,30,01,00,3.30
2018,12,30,01,01,4.30
2018,12,30,01,02,5.00
2018,12,30,01,03,3.90
2018,12,30,01,04,4.80
2018,12,30,01,05,5.00
2018,12,30,01,06,4.50
2018,12,30,01,07,2.90
2018,12,30,01,08,3.70
2018,12,30,01,09,3.20
2018,12,30,01,10,1.70
2018,12,30,01,11,2.20
2018,12,30,01,12,2.80
2018,12,30,01,13,3.00
2018,12,30,01,14,2.10
2018,12,30,01,15,2.60
2018,12,30,01,16,2.40
2018,12,30,01,17,3.40
2018,12,30,01,18,2.50
2018,12,30,01,19,1.80
2018,12,30,01,20,2.80
2018,12,30,01,21,3.30
2018,12,30,01,22,2.20
2018,12,30,01,23,1.70
2018,12,30,01,24,2.50
2018,12,30,01,25,2.30
2018,12,30,01,26,3.70
2018,12,30,01,27,3.70
2018,12,30,01,28,3.30
2018,12,30,01,29,5.30
2018,12,30,01,30,4.00
2018,12,30,01,31,4.60
2018,12,30,01,32,2.50
2018,12,30,01,33,3.00
2018,12,30,01,34,1.50
2018,12,30,01,35,2.10
2018,12,30,01,36,3.30
2018,12,30,01,37,3.50
2018,12,30,01,38,2.30
2018,12,30,01,39,4.90
2018,12,30,01,40,3.20
2018,12,30,01,41,1.10
2018,12,30,01,42,1.20
2018,12,30,01,43,1.70
2018,12,30,01,44,2.30
2018,12,30,01,45,4.10
2018,12,30,01,46,1.80
2018,12,30,01,47,2.20
2018,12,30,01,48,1.30
2018,12,30,01,49,2.10
2018,12,30,01,50,3.30
2018,12,30,01,51,2.80
2018,12,30,01,52,3.30
2018,12,30,01,53,3.50
2018,12,30,01,54,0.40
2018,12,30,01,55,2.60
2018,12,30,01,56,4.30
2018,12,30,01,57,4.10
2018,12,30,01,58,2.70
2018,12,30,01,59,3.70
2018,12,30,02,00,2.00
2018,12,30,02,01,1.90
2018,12,30,02,02,4.00
2018,12,30,02,03,3.80
2018,12,30,02,04,1.70
2018,12,30,02,05,2.00
2018,12,30,02,06,3.50
2018,12,30,02,07,2.40
2018,12,30,02,08,3.00
2018,12,30,02,09,3.20
2018,12,30,02,10,0.20
2018,12,30,02,11,1.80
2018,12,30,02,12,4.80
2018,12,30,02,13,2.00
2018,12,30,02,14,2.30
2018,12,30,02,15,3.00
2018,12,30,02,16,2.30
2018,12,30,02,17,3.20
2018,12,30,02,18,2.60
2018,12,30,02,19,4.40
2018,12,30,02,20,2.60
2018,12,30,02,21,5.40
2018,12,30,02,22,4.00
2018,12,30,02,23,5.30
2018,12,30,02,24,4.90
2018,12,30,02,25,3.50
2018,12,30,02,26,2.00
2018,12,30,02,27,2.70
2018,12,30,02,28,3.90
2018,12,30,02,29,3.30
2018,12,30,02,30,4.90
2018,12,30,02,31,1.40
2018,12,30,02,32,2.50
2018,12,30,02,33,2.80
2018,12,30,02,34,3.00
2018,12,30,02,35,1.70
2018,12,30,02,36,3.40
2018,12,30,02,37,2.90
2018,12,30,02,38,2.70
2018,12,30,02,39,3.90
2018,12,30,02,40,3.50
2018,12,30,02,41,5.00
2018,12,30,02,42,3.50
2018,12,30,02,43,3.00
2018,12,30,02,44,5.10
2018,12,30,02,45,5.40
2018,12,30,02,46,2.30
2018,12,30,02,47,2.10
2018,12,30,02,48,2.30
2018,12,30,02,49,2.90
2018,12,30,02,50,2.50
2018,12,30,02,51,2.00
2018,12,30,02,52,1.80
2018,12,30,02,53,3.40
2018,12,30,02,54,2.60
2018,12,30,02,55,1.40
2018,12,30,02,56,1.60
2018,12,30,02,57,3.10
2018,12,30,02,58,3.50
2018,12,30,02,59,2.30
2018,12,30,03,00,2.10
2018,12,30,03,01,1.90
2018,12,30,03,02,3.00
2018,12,30,03,03,3.40
2018,12,30,03,04,2.30
2018,12,30,03,05,3.60
2018,12,30,03,06,5.50
2018,12,30,03,07,3.10
2018,12,30,03,08,2.40
2018,12,30,03,09,2.40
2018,12,30,03,10,2.70
2018,12,30,03,11,1.40
2018,12,30,03,12,0.70
2018,12,30,03,13,1.00
2018,12,30,03,14,5.40
2018,12,30,03,15,2.70
2018,12,30,03,16,5.20
2018,12,30,03,17,4.40
2018,12,30,03,18,7.90
2018,12,30,03,19,8.40
2018,12,30,03,20,6.20
2018,12,30,03,21,9.30
2018,12,30,03,22,6.70
2018,12,30,03,23,5.70
2018,12,30,03,24,6.90
2018,12,30,03,25,8.10
2018,12,30,03,26,6.20
2018,12,30,03,27,5.20
2018,12,30,03,28,8.50
2018,12,30,03,29,6.80
2018,12,30,03,30,7.70
2018,12,30,03,31,6.30
2018,12,30,03,32,4.50
2018,12,30,03,33,6.50
2018,12,30,03,34,5.90
2018,12,30,03,35,5.40
2018,12,30,03,36,4.90
2018,12,30,03,37,4.00
2018,12,30,03,38,5.70
2018,12,30,03,39,3.50
2018,12,30,03,40,2.30
2018,12,30,03,41,2.10
2018,12,30,03,42,3.00
2018,12,30,03,43,1.90
2018,12,30,03,44,2.40
2018,12,30,03,45,5.10
2018,12,30,03,46,5.30
2018,12,30,03,47,7.00
2018,12,30,03,48,7.60
2018,12,30,03,49,4.80
2018,12,30,03,50,7.90
2018,12,30,03,51,4.30
2018,12,30,03,52,8.90
2018,12,30,03,53,8.90
2018,12,30,03,54,9.70
2018,12,30,03,55,7.70
2018,12,30,03,56,8.20
2018,12,30,03,57,5.50
2018,12,30,03,58,12.20
2018,12,30,03,59,11.30
2018,12,30,04,00,8.80
2018,12,30,04,01,8.00
2018,12,30,04,02,10.70
2018,12,30,04,03,10.80
2018,12,30,04,04,6.80
2018,12,30,04,05,10.40
2018,12,30,04,06,10.80
2018,12,30,04,07,7.50
2018,12,30,04,08,10.70
2018,12,30,04,09,10.90
2018,12,30,04,10,12.60
2018,12,30,04,11,7.80
2018,12,30,04,12,8.30
2018,12,30,04,13,8.70
2018,12,30,04,14,10.50
2018,12,30,04,15,7.90
2018,12,30,04,16,8.70
2018,12,30,04,17,5.60
2018,12,30,04,18,9.40
2018,12,30,04,19,10.00
2018,12,30,04,20,11.40
2018,12,30,04,21,10.10
2018,12,30,04,22,8.20
2018,12,30,04,23,9.10
2018,12,30,04,24,9.10
2018,12,30,04,25,8.40
2018,12,30,04,26,9.20
2018,12,30,04,27,13.00
2018,12,30,04,28,10.50
2018,12,30,04,29,3.80
2018,12,30,04,30,6.70
2018,12,30,04,31,7.70
2018,12,30,04,32,10.00
2018,12,30,04,33,7.40
2018,12,30,04,34,10.20
2018,12,30,04,35,7.60
2018,12,30,04,36,5.80
2018,12,30,04,37,8.10
2018,12,30,04,38,6.20
2018,12,30,04,39,4.40
2018,12,30,04,40,5.00
2018,12,30,04,41,3.70
2018,12,30,04,42,6.30
2018,12,30,04,43,4.70
2018,12,30,04,44,8.10
2018,12,30,04,45,11.10
2018,12,30,04,46,5.60
2018,12,30,04,47,4.30
2018,12,30,04,48,6.90
2018,12,30,04,49,8.20
2018,12,30,04,50,4.50
2018,12,30,04,51,7.40
2018,12,30,04,52,6.90
2018,12,30,04,53,7.40
2018,12,30,04,54,3.50
2018,12,30,04,55,7.70
2018,12,30,04,56,3.70
2018,12,30,04,57,4.60
2018,12,30,04,58,5.80
2018,12,30,04,59,3.90
2018,12,30,05,00,5.90
2018,12,30,05,01,4.10
2018,12,30,05,02,5.80
2018,12,30,05,03,7.90
2018,12,30,05,04,6.80
2018,12,30,05,05,8.20
2018,12,30,05,06,7.40
2018,12,30,05,07,3.60
2018,12,30,05,08,5.10
2018,12,30,05,09,7.70
2018,12,30,05,10,9.20
2018,12,30,05,11,5.70
2018,12,30,05,12,9.90
2018,12,30,05,13,9.30
2018,12,30,05,14,8.00
2018,12,30,05,15,6.00
2018,12,30,05,16,6.80
2018,12,30,05,17,7.20
2018,12,30,05,18,4.40
2018,12,30,05,19,3.70
2018,12,30,05,20,6.70
2018,12,30,05,21,8.60
2018,12,30,05,22,9.80
2018,12,30,05,23,8.20
2018,12,30,05,24,8.40
2018,12,30,05,25,8.10
2018,12,30,05,26,11.60
2018,12,30,05,27,9.50
2018,12,30,05,28,6.60
2018,12,30,05,29,5.70
2018,12,30,05,30,5.40
2018,12,30,05,31,4.40
2018,12,30,05,32,4.90
2018,12,30,05,33,7.20
2018,12,30,05,34,3.90
2018,12,30,05,35,4.00
2018,12,30,05,36,4.30
2018,12,30,05,37,2.90
2018,12,30,05,38,3.90
2018,12,30,05,39,3.60
2018,12,30,05,40,4.80
2018,12,30,05,41,5.40
2018,12,30,05,42,3.20
2018,12,30,05,43,5.30
2018,12,30,05,44,5.30
2018,12,30,05,45,3.20
2018,12,30,05,46,7.50
2018,12,30,05,47,6.80
2018,12,30,05,48,4.30
2018,12,30,05,49,10.80
2018,12,30,05,50,10.20
2018,12,30,05,51,11.80
2018,12,30,05,52,8.80
2018,12,30,05,53,9.50
2018,12,30,05,54,11.50
2018,12,30,05,55,6.20
2018,12,30,05,56,7.50
2018,12,30,05,57,5.00
2018,12,30,05,58,5.30
2018,12,30,05,59,7.00
2018,12,30,06,00,5.40
2018,12,30,06,01,7.60
2018,12,30,06,02,3.80
2018,12,30,06,03,3.20
2018,12,30,06,04,6.10
2018,12,30,06,05,10.80
2018,12,30,06,06,9.70
2018,12,30,06,07,7.50
2018,12,30,06,08,9.10
2018,12,30,06,09,7.00
2018,12,30,06,10,10.00
2018,12,30,06,11,7.50
2018,12,30,06,12,3.00
2018,12,30,06,13,6.60
2018,12,30,06,14,2.80
2018,12,30,06,15,4.50
2018,12,30,06,16,4.30
2018,12,30,06,17,1.90
2018,12,30,06,18,2.30
2018,12,30,06,19,3.80
2018,12,30,06,20,2.70
2018,12,30,06,21,4.10
2018,12,30,06,22,4.10
2018,12,30,06,23,3.80
2018,12,30,06,24,2.40
2018,12,30,06,25,3.30
2018,12,30,06,26,3.50
2018,12,30,06,27,3.50
2018,12,30,06,28,2.80
2018,12,30,06,29,3.20
2018,12,30,06,30,5.80
2018,12,30,06,31,2.60
2018,12,30,06,32,3.20
2018,12,30,06,33,4.20
2018,12,30,06,34,3.50
2018,12,30,06,35,3.60
2018,12,30,06,36,5.20
2018,12,30,06,37,3.10
2018,12,30,06,38,3.30
2018,12,30,06,39,3.50
2018,12,30,06,40,2.80
2018,12,30,06,41,3.10
2018,12,30,06,42,3.80
2018,12,30,06,43,3.20
2018,12,30,06,44,3.40
2018,12,30,06,45,4.30
2018,12,30,06,46,5.00
2018,12,30,06,47,5.30
2018,12,30,06,48,5.70
2018,12,30,06,49,1.90
2018,12,30,06,50,7.80
2018,12,30,06,51,7.40
2018,12,30,06,52,9.00
2018,12,30,06,53,4.90
2018,12,30,06,54,5.00
2018,12,30,06,55,3.90
2018,12,30,06,56,2.30
2018,12,30,06,57,6.30
2018,12,30,06,58,3.10
2018,12,30,06,59,5.50
2018,12,30,07,00,2.50
2018,12,30,07,01,0.90
2018,12,30,07,02,5.20
2018,12,30,07,03,10.30
2018,12,30,07,04,8.20
2018,12,30,07,05,9.20
2018,12,30,07,06,10.30
2018,12,30,07,07,5.70
2018,12,30,07,08,3.20
2018,12,30,07,09,4.70
2018,12,30,07,10,6.30
2018,12,30,07,11,6.60
2018,12,30,07,12,6.40
2018,12,30,07,13,8.50
2018,12,30,07,14,6.80
2018,12,30,07,15,5.50
2018,12,30,07,16,3.80
2018,12,30,07,17,2.90
2018,12,30,07,18,8.70
2018,12,30,07,19,8.50
2018,12,30,07,20,6.50
2018,12,30,07,21,3.30
2018,12,30,07,22,3.80
2018,12,30,07,23,3.50
2018,12,30,07,24,4.20
2018,12,30,07,25,5.10
2018,12,30,07,26,3.90
2018,12,30,07,27,2.10
2018,12,30,07,28,7.40
2018,12,30,07,29,8.90
2018,12,30,07,30,9.00
2018,12,30,07,31,10.20
2018,12,30,07,32,9.40
2018,12,30,07,33,5.40
2018,12,30,07,34,13.00
2018,12,30,07,35,7.50
2018,12,30,07,36,6.40
2018,12,30,07,37,7.10
2018,12,30,07,38,9.60
2018,12,30,07,39,5.60
2018,12,30,07,40,2.80
2018,12,30,07,41,1.20
2018,12,30,07,42,6.20
2018,12,30,07,43,6.80
2018,12,30,07,44,5.20
2018,12,30,07,45,5.40
2018,12,30,07,46,6.30
2018,12,30,07,47,6.30
2018,12,30,07,48,6.20
2018,12,30,07,49,9.30
2018,12,30,07,50,8.80
2018,12,30,07,51,7.10
2018,12,30,07,52,3.40
2018,12,30,07,53,4.00
2018,12,30,07,54,7.10
2018,12,30,07,55,6.50
2018,12,30,07,56,3.50
2018,12,30,07,57,3.40
2018,12,30,07,58,6.20
2018,12,30,07,59,5.30
2018,12,30,08,00,6.10
2018,12,30,08,01,7.20
2018,12,30,08,02,6.50
2018,12,30,08,03,5.90
2018,12,30,08,04,4.40
2018,12,30,08,05,3.30
2018,12,30,08,06,5.40
2018,12,30,08,07,10.20
2018,12,30,08,08,5.30
2018,12,30,08,09,9.00
2018,12,30,08,10,6.40
2018,12,30,08,11,7.60
2018,12,30,08,12,7.70
2018,12,30,08,13,4.00
2018,12,30,08,14,6.40
2018,12,30,08,15,10.30
2018,12,30,08,16,10.50
2018,12,30,08,17,2.50
2018,12,30,08,18,3.80
2018,12,30,08,19,5.20
2018,12,30,08,20,5.00
2018,12,30,08,21,4.50
2018,12,30,08,22,3.70
2018,12,30,08,23,5.20
2018,12,30,08,24,5.00
2018,12,30,08,25,6.30
2018,12,30,08,26,3.70
2018,12,30,08,27,3.70
2018,12,30,08,28,7.90
2018,12,30,08,29,5.50
2018,12,30,08,30,3.60
2018,12,30,08,31,3.30
2018,12,30,08,32,4.90
2018,12,30,08,33,6.90
2018,12,30,08,34,4.60
2018,12,30,08,35,3.50
2018,12,30,08,36,5.70
2018,12,30,08,37,4.30
2018,12,30,08,38,7.60
2018,12,30,08,39,5.20
2018,12,30,08,40,7.10
2018,12,30,08,41,5.50
2018,12,30,08,42,4.30
2018,12,30,08,43,4.20
2018,12,30,08,44,5.00
2018,12,30,08,45,7.50
2018,12,30,08,46,8.10
2018,12,30,08,47,5.50
2018,12,30,08,48,3.30
2018,12,30,08,49,4.90
2018,12,30,08,50,4.30
2018,12,30,08,51,5.00
2018,12,30,08,52,2.50
2018,12,30,08,53,5.30
2018,12,30,08,54,6.40
2018,12,30,08,55,5.90
2018,12,30,08,56,3.80
2018,12,30,08,57,6.70
2018,12,30,08,58,8.10
2018,12,30,08,59,4.80
2018,12,30,09,00,3.90
2018,12,30,09,01,4.10
2018,12,30,09,02,3.50
2018,12,30,09,03,6.00
2018,12,30,09,04,5.90
2018,12,30,09,05,2.40
2018,12,30,09,06,5.70
2018,12,30,09,07,11.50
2018,12,30,09,08,4.70
2018,12,30,09,09,4.10
2018,12,30,09,10,5.10
2018,12,30,09,11,4.80
2018,12,30,09,12,6.60
2018,12,30,09,13,4.50
2018,12,30,09,14,5.50
2018,12,30,09,15,6.20
2018,12,30,09,16,6.80
2018,12,30,09,17,2.90
2018,12,30,09,18,4.30
2018,12,30,09,19,1.70
2018,12,30,09,20,3.40
2018,12,30,09,21,2.70
2018,12,30,09,22,6.10
2018,12,30,09,23,8.60
2018,12,30,09,24,5.50
2018,12,30,09,25,3.30
2018,12,30,09,26,4.00
2018,12,30,09,27,6.20
2018,12,30,09,28,6.00
2018,12,30,09,29,7.10
2018,12,30,09,30,10.30
2018,12,30,09,31,8.10
2018,12,30,09,32,3.30
2018,12,30,09,33,7.40
2018,12,30,09,34,8.70
2018,12,30,09,35,14.20
2018,12,30,09,36,7.50
2018,12,30,09,37,2.50
2018,12,30,09,38,7.50
2018,12,30,09,39,8.50
2018,12,30,09,40,4.20
2018,12,30,09,41,2.80
2018,12,30,09,42,3.90
2018,12,30,09,43,7.00
2018,12,30,09,44,5.40
2018,12,30,09,45,2.70
2018,12,30,09,46,5.40
2018,12,30,09,47,3.30
2018,12,30,09,48,6.10
2018,12,30,09,49,10.20
2018,12,30,09,50,10.00
2018,12,30,09,51,7.50
2018,12,30,09,52,3.20
2018,12,30,09,53,3.80
2018,12,30,09,54,7.30
2018,12,30,09,55,4.40
2018,12,30,09,56,5.20
2018,12,30,09,57,2.70
2018,12,30,09,58,5.00
2018,12,30,09,59,6.60
2018,12,30,10,00,4.00
2018,12,30,10,01,8.00
2018,12,30,10,02,6.50
2018,12,30,10,03,4.00
2018,12,30,10,04,3.60
2018,12,30,10,05,4.00
2018,12,30,10,06,7.00
2018,12,30,10,07,4.80
2018,12,30,10,08,8.70
2018,12,30,10,09,12.00
2018,12,30,10,10,10.20
2018,12,30,10,11,6.10
2018,12,30,10,12,6.40
2018,12,30,10,13,2.60
2018,12,30,10,14,5.40
2018,12,30,10,15,7.40
2018,12,30,10,16,5.80
2018,12,30,10,17,11.00
2018,12,30,10,18,4.00
2018,12,30,10,19,2.10
2018,12,30,10,20,3.40
2018,12,30,10,21,3.60
2018,12,30,10,22,6.10
2018,12,30,10,23,6.80
2018,12,30,10,24,4.40
2018,12,30,10,25,4.30
2018,12,30,10,26,4.50
2018,12,30,10,27,9.00
2018,12,30,10,28,5.10
2018,12,30,10,29,4.40
2018,12,30,10,30,6.90
2018,12,30,10,31,6.00
2018,12,30,10,32,8.00
2018,12,30,10,33,5.80
2018,12,30,10,34,3.90
2018,12,30,10,35,4.10
2018,12,30,10,36,6.60
2018,12,30,10,37,6.60
2018,12,30,10,38,2.80
2018,12,30,10,39,11.10
2018,12,30,10,40,7.30
2018,12,30,10,41,6.20
2018,12,30,10,42,7.20
2018,12,30,10,43,5.90
2018,12,30,10,44,5.50
2018,12,30,10,45,9.30
2018,12,30,10,46,11.90
2018,12,30,10,47,4.10
2018,12,30,10,48,3.40
2018,12,30,10,49,5.60
2018,12,30,10,50,4.50
2018,12,30,10,51,9.10
2018,12,30,10,52,3.80
2018,12,30,10,53,9.20
2018,12,30,10,54,8.50
2018,12,30,10,55,6.00
2018,12,30,10,56,8.60
2018,12,30,10,57,7.50
2018,12,30,10,58,7.10
2018,12,30,10,59,7.70
2018,12,30,11,00,5.80
2018,12,30,11,01,7.10
2018,12,30,11,02,3.60
2018,12,30,11,03,9.70
2018,12,30,11,04,4.00
2018,12,30,11,05,4.00
2018,12,30,11,06,8.10
2018,12,30,11,07,9.00
2018,12,30,11,08,6.90
2018,12,30,11,09,4.40
2018,12,30,11,10,9.00
2018,12,30,11,11,4.90
2018,12,30,11,12,5.80
2018,12,30,11,13,5.30
2018,12,30,11,14,6.30
2018,12,30,11,15,6.80
2018,12,30,11,16,7.50
2018,12,30,11,17,3.80
2018,12,30,11,18,8.20
2018,12,30,11,19,3.60
2018,12,30,11,20,9.10
2018,12,30,11,21,5.40
2018,12,30,11,22,3.50
2018,12,30,11,23,5.20
2018,12,30,11,24,3.90
2018,12,30,11,25,6.10
2018,12,30,11,26,11.00
2018,12,30,11,27,6.30
2018,12,30,11,28,3.40
2018,12,30,11,29,8.60
2018,12,30,11,30,8.30
2018,12,30,11,31,9.10
2018,12,30,11,32,8.90
2018,12,30,11,33,7.50
2018,12,30,11,34,7.50
2018,12,30,11,35,9.50
2018,12,30,11,36,10.40
2018,12,30,11,37,3.40
2018,12,30,11,38,9.70
2018,12,30,11,39,8.00
2018,12,30,11,40,4.80
2018,12,30,11,41,9.00
2018,12,30,11,42,7.40
2018,12,30,11,43,11.80
2018,12,30,11,44,9.10
2018,12,30,11,45,12.10
2018,12,30,11,46,10.70
2018,12,30,11,47,3.60
2018,12,30,11,48,8.20
2018,12,30,11,49,11.00
2018,12,30,11,50,16.50
2018,12,30,11,51,9.80
2018,12,30,11,52,12.80
2018,12,30,11,53,8.10
2018,12,30,11,54,4.50
2018,12,30,11,55,9.00
2018,12,30,11,56,5.00
2018,12,30,11,57,7.50
2018,12,30,13,26,11.60
2018,12,30,13,27,13.50
2018,12,30,13,28,9.30
2018,12,30,13,29,11.40
2018,12,30,13,30,6.60
2018,12,30,13,31,6.50
2018,12,30,13,32,10.20
2018,12,30,13,33,9.20
2018,12,30,13,34,14.50
2018,12,30,13,35,8.60
2018,12,30,13,36,5.20
2018,12,30,13,37,10.00
2018,12,30,13,38,13.70
2018,12,30,13,39,12.50
2018,12,30,13,40,9.50
2018,12,30,13,41,12.60
2018,12,30,13,42,11.50
2018,12,30,13,43,12.10
2018,12,30,13,44,9.90
2018,12,30,13,45,11.00
2018,12,30,13,46,7.60
2018,12,30,13,47,6.00
2018,12,30,13,48,6.20
2018,12,30,13,49,2.90
2018,12,30,13,50,7.60
2018,12,30,13,51,12.50
2018,12,30,13,52,11.20
2018,12,30,13,53,13.40
2018,12,30,13,54,10.60
2018,12,30,13,55,11.70
2018,12,30,13,56,9.90
2018,12,30,13,57,8.60
2018,12,30,13,58,5.90
2018,12,30,13,59,11.50
2018,12,30,14,00,7.80
2018,12,30,14,01,7.80
2018,12,30,14,02,5.30
2018,12,30,14,03,7.90
2018,12,30,14,04,7.50
2018,12,30,14,05,11.60
2018,12,30,14,06,8.20
2018,12,30,14,07,10.20
2018,12,30,14,08,9.80
2018,12,30,14,09,11.30
2018,12,30,14,10,8.40
2018,12,30,14,11,11.30
2018,12,30,14,12,7.60
2018,12,30,14,13,10.30
2018,12,30,14,14,10.60
2018,12,30,14,15,5.80
2018,12,30,14,16,5.20
2018,12,30,14,17,10.30
2018,12,30,14,18,9.60
2018,12,30,14,19,9.80
2018,12,30,14,20,6.60
2018,12,30,14,21,5.20
2018,12,30,14,22,3.00
2018,12,30,14,23,11.50
2018,12,30,14,24,8.60
2018,12,30,14,25,7.40
2018,12,30,14,26,6.90
2018,12,30,14,27,12.30
2018,12,30,14,28,10.60
2018,12,30,14,29,5.20
2018,12,30,14,30,6.80
2018,12,30,14,31,5.70
2018,12,30,14,32,10.00
2018,12,30,14,33,6.70
2018,12,30,14,34,7.10
2018,12,30,14,35,4.10
2018,12,30,14,36,3.10
2018,12,30,14,37,7.60
2018,12,30,14,38,9.70
2018,12,30,14,39,9.70
2018,12,30,14,40,10.00
2018,12,30,14,41,11.10
2018,12,30,14,42,8.30
2018,12,30,14,43,12.60
2018,12,30,14,44,7.70
2018,12,30,14,45,9.90
2018,12,30,14,46,6.20
2018,12,30,14,47,6.10
2018,12,30,14,48,13.10
2018,12,30,14,49,7.80
2018,12,30,14,50,12.50
2018,12,30,14,51,11.90
2018,12,30,14,52,11.10
2018,12,30,14,53,10.50
2018,12,30,14,54,13.10
2018,12,30,14,55,6.70
2018,12,30,14,56,10.60
2018,12,30,14,57,10.20
2018,12,30,14,58,4.80
2018,12,30,14,59,3.80
2018,12,30,15,00,2.90
2018,12,30,15,01,8.80
2018,12,30,15,02,16.00
2018,12,30,15,03,12.10
2018,12,30,15,04,6.00
2018,12,30,15,05,11.00
2018,12,30,15,06,5.50
2018,12,30,15,07,5.50
2018,12,30,15,08,8.90
2018,12,30,15,09,6.60
2018,12,30,15,10,13.60
2018,12,30,15,11,9.70
2018,12,30,15,12,5.70
2018,12,30,15,13,6.00
2018,12,30,15,14,6.00
2018,12,30,15,15,9.90
2018,12,30,15,16,12.50
2018,12,30,15,17,3.90
2018,12,30,15,18,8.70
2018,12,30,15,19,4.70
2018,12,30,15,20,2.70
2018,12,30,15,21,3.30
2018,12,30,15,22,7.70
2018,12,30,15,23,8.10
2018,12,30,15,24,6.80
2018,12,30,15,25,7.30
2018,12,30,15,26,4.70
2018,12,30,15,27,7.20
2018,12,30,15,28,10.40
2018,12,30,15,29,9.00
2018,12,30,15,30,5.00
2018,12,30,15,31,5.00
2018,12,30,15,32,11.90
2018,12,30,15,33,9.30
2018,12,30,15,34,7.10
2018,12,30,15,35,7.20
2018,12,30,15,36,11.80
2018,12,30,15,37,8.00
2018,12,30,15,38,7.40
2018,12,30,15,39,12.30
2018,12,30,15,40,10.90
2018,12,30,15,41,6.80
2018,12,30,15,42,5.90
2018,12,30,15,43,6.10
2018,12,30,15,44,9.50
2018,12,30,15,45,4.50
2018,12,30,15,46,10.30
2018,12,30,15,47,5.40
2018,12,30,15,48,4.20
2018,12,30,15,49,6.20
2018,12,30,15,50,8.10
2018,12,30,15,51,6.00
2018,12,30,15,52,7.60
2018,12,30,15,53,3.60
2018,12,30,15,54,4.30
2018,12,30,15,55,3.50
2018,12,30,15,56,2.00
2018,12,30,15,57,3.90
2018,12,30,15,58,3.40
2018,12,30,15,59,8.20
2018,12,30,16,00,9.30
2018,12,30,16,01,3.50
2018,12,30,16,02,3.20
2018,12,30,16,03,4.60
2018,12,30,16,04,4.70
2018,12,30,16,05,5.30
2018,12,30,16,06,6.50
2018,12,30,16,07,3.80
2018,12,30,16,08,3.00
2018,12,30,16,09,3.10
2018,12,30,16,10,6.00
2018,12,30,16,11,4.80
2018,12,30,16,12,2.30
2018,12,30,16,13,4.70
2018,12,30,16,14,3.10
2018,12,30,16,15,4.20
2018,12,30,16,16,4.00
2018,12,30,16,17,6.00
2018,12,30,16,18,3.90
2018,12,30,16,19,5.00
2018,12,30,16,20,2.20
2018,12,30,16,21,3.30
2018,12,30,16,22,2.10
2018,12,30,16,23,4.80
2018,12,30,16,24,4.50
2018,12,30,16,25,2.80
2018,12,30,16,26,5.40
2018,12,30,16,27,4.00
2018,12,30,16,28,4.50
2018,12,30,16,29,3.50
2018,12,30,16,30,3.60
2018,12,30,16,31,3.00
2018,12,30,16,32,4.10
2018,12,30,16,33,5.90
2018,12,30,16,34,2.60
2018,12,30,16,35,5.30
2018,12,30,16,36,4.40
2018,12,30,16,37,3.00
2018,12,30,16,38,4.10
2018,12,30,16,39,2.60
2018,12,30,16,40,6.40
2018,12,30,16,41,4.00
2018,12,30,16,42,3.70
2018,12,30,16,43,2.30
2018,12,30,16,44,5.00
2018,12,30,16,45,3.20
2018,12,30,16,46,2.20
2018,12,30,16,47,3.70
2018,12,30,16,48,2.30
2018,12,30,16,49,2.60
2018,12,30,16,50,5.20
2018,12,30,16,51,4.30
2018,12,30,16,52,4.80
2018,12,30,16,53,2.80
2018,12,30,16,54,4.40
2018,12,30,16,55,3.60
2018,12,30,16,56,4.60
2018,12,30,16,57,2.70
2018,12,30,16,58,4.00
2018,12,30,16,59,3.00
2018,12,30,17,00,3.10
2018,12,30,17,01,5.30
2018,12,30,17,02,3.60
2018,12,30,17,03,4.30
2018,12,30,17,04,4.00
2018,12,30,17,05,2.90
2018,12,30,17,06,3.40
2018,12,30,17,07,2.10
2018,12,30,17,08,3.70
2018,12,30,17,09,1.90
2018,12,30,17,10,4.10
2018,12,30,17,11,5.00
2018,12,30,17,12,4.00
2018,12,30,17,13,1.70
2018,12,30,17,14,5.70
2018,12,30,17,15,4.20
2018,12,30,17,16,4.00
2018,12,30,17,17,4.80
2018,12,30,17,18,5.20
2018,12,30,17,19,3.90
2018,12,30,17,20,3.90
2018,12,30,17,21,1.90
2018,12,30,17,22,2.50
2018,12,30,17,23,2.40
2018,12,30,17,24,2.10
2018,12,30,17,25,2.10
2018,12,30,17,26,4.70
2018,12,30,17,27,3.70
2018,12,30,17,28,4.50
2018,12,30,17,29,3.70
2018,12,30,17,30,0.90
2018,12,30,17,31,2.10
2018,12,30,17,32,1.90
2018,12,30,17,33,0.70
2018,12,30,17,34,1.30
2018,12,30,17,35,1.70
2018,12,30,17,36,2.80
2018,12,30,17,37,2.10
2018,12,30,17,38,2.90
2018,12,30,17,39,3.00
2018,12,30,17,40,0.00
2018,12,30,17,41,0.00
2018,12,30,17,42,4.30
2018,12,30,17,43,5.70
2018,12,30,17,44,1.90
2018,12,30,17,45,4.00
2018,12,30,17,46,2.10
2018,12,30,17,47,1.50
2018,12,30,17,48,2.80
2018,12,30,17,49,1.10
2018,12,30,17,50,2.00
2018,12,30,17,51,4.40
2018,12,30,17,52,2.10
2018,12,30,17,53,2.70
2018,12,30,17,54,2.50
2018,12,30,17,55,2.90
2018,12,30,17,56,4.90
2018,12,30,17,57,4.20
2018,12,30,17,58,3.30
2018,12,30,17,59,3.70
2018,12,30,18,00,3.20
2018,12,30,18,01,1.90
2018,12,30,18,02,5.20
2018,12,30,18,03,5.90
2018,12,30,18,04,1.80
2018,12,30,18,05,4.70
2018,12,30,18,06,5.00
2018,12,30,18,07,4.20
2018,12,30,18,08,4.40
2018,12,30,18,09,6.30
2018,12,30,18,10,3.90
2018,12,30,18,11,4.00
2018,12,30,18,12,1.80
2018,12,30,18,13,2.70
2018,12,30,18,14,3.20
2018,12,30,18,15,3.70
2018,12,30,18,16,2.30
2018,12,30,18,17,3.40
2018,12,30,18,18,3.70
2018,12,30,18,19,2.80
2018,12,30,18,20,4.20
2018,12,30,18,21,4.70
2018,12,30,18,22,2.40
2018,12,30,18,23,5.70
2018,12,30,18,24,5.30
2018,12,30,18,25,3.50
2018,12,30,18,26,3.40
2018,12,30,18,27,3.00
2018,12,30,18,28,4.80
2018,12,30,18,29,2.90
2018,12,30,18,30,3.80
2018,12,30,18,31,4.40
2018,12,30,18,32,3.10
2018,12,30,18,33,3.20
2018,12,30,18,34,3.20
2018,12,30,18,35,3.90
2018,12,30,18,36,4.50
2018,12,30,18,37,2.80
2018,12,30,18,38,4.20
2018,12,30,18,39,3.10
2018,12,30,18,40,3.60
2018,12,30,18,41,3.80
2018,12,30,18,42,5.00
2018,12,30,18,43,4.10
2018,12,30,18,44,3.80
2018,12,30,18,45,5.40
2018,12,30,18,46,4.40
2018,12,30,18,47,4.40
2018,12,30,18,48,5.40
2018,12,30,18,49,4.10
2018,12,30,18,50,4.60
2018,12,30,18,51,4.00
2018,12,30,18,52,3.30
2018,12,30,18,53,4.00
2018,12,30,18,54,3.20
2018,12,30,18,55,5.00
2018,12,30,18,56,5.20
2018,12,30,18,57,3.30
2018,12,30,18,58,4.50
2018,12,30,18,59,5.90
2018,12,30,19,00,3.30
2018,12,30,19,01,4.40
2018,12,30,19,02,8.00
2018,12,30,19,03,3.30
2018,12,30,19,04,3.80
2018,12,30,19,05,4.50
2018,12,30,19,06,6.90
2018,12,30,19,07,4.60
2018,12,30,19,08,4.30
2018,12,30,19,09,3.50
2018,12,30,19,10,4.70
2018,12,30,19,11,1.90
2018,12,30,19,12,4.60
2018,12,30,19,13,5.10
2018,12,30,19,14,5.00
2018,12,30,19,15,3.50
2018,12,30,19,16,3.90
2018,12,30,19,17,4.40
2018,12,30,19,18,2.30
2018,12,30,19,19,2.20
2018,12,30,19,20,4.30
2018,12,30,19,21,4.00
2018,12,30,19,22,4.10
2018,12,30,19,23,5.20
2018,12,30,19,24,5.40
2018,12,30,19,25,5.40
2018,12,30,19,26,2.30
2018,12,30,19,27,5.30
2018,12,30,19,28,3.00
2018,12,30,19,29,3.80
2018,12,30,19,30,4.10